DECAYED

STARLINK-5144, 54072 (Decayed)

Orbit data source: Space-Track

STARLINK-5144, 54072 was a payload satellite owned by SpaceX/Seattle (US) in LEO that was launched on Thu, 20 Oct 2022 UTC via an FALCON 9 launch vehicle from the Air Force Eastern Test Range (AFETR). Payload-class satellites include a variety of spacecraft equipped with specific instruments for various scientific and technological missions. These include communications satellites like Starlink; space stations such as the ISS; scientific satellites like the Hubble; Earth observation satellites from companies like Planet Labs, Umbra, and HawkEye 360; GPS; miniature CubeSats for education and research; and military/defense satellites.

Not visible in the next 10 days
Identifier
54072, 2022-136X
Orbit
Decayed
Country
Flag of USUS
Related business
Manufacturer
SpaceX/Seattle
Mission
Decayed Commercial Communications
Bus & Motor
STARLINK, Unknown motor
Mass
305 kg wet, ~290 kg dry
Launch date (UTC)
2022-10-20 (4 years ago)
Launch vehicle
FALCON 9
Launch site
Air Force Eastern Test Range (AFETR)
Object type
Payload
Rocket body
Debris
Shape & HBR
Box + 1 Pan, 10.1 m
Radar Cross Section
13.562 m², Large (>1 m²)

Expand to show TLE details & history
Last TLE update: 1 year ago

TLE from 1 year ago
0 STARLINK-5144
1 54072U 22136X   25009.11668919  .14642703  12630-4  22205-3 0  9996
2 54072  53.1878  61.4668 0003898 314.7306 139.0017 16.48407984123621
Epoch: 2025-01-09T02:48Z
TLE epoch observation values (Epoch: 2025-01-09T02:48:01.946Z)
Latitude
53.18193°
Longitude
6.82788°
Altitude
151.939 km
Speed
7.82 km/s
True Right ascension
10h 30m 56s
True Declination
53° 00' 05"
Sunlit
Object was in full shadow at epoch
Visualization orbit readout
Latitude
Unknown
Longitude
Unknown
Altitude
Unknown
Speed
Unknown
Apparent Right ascension
Unknown
Apparent Declination
Unknown
Sunlit
N/A
Visualization observer readout
Local Sidereal Time
21:36:59
Azimuth
Unknown
Elevation
Unknown
Doppler factor
Unknown
Orbital elements
Apogee altitude
146.338 km
Perigee altitude
141.253 km
Semi-major axis
6,521.933 km
Eccentricity
0.00039
Inclination
53.1878°
RAAN
61.4668°
Arg. of periapsis
314.7306°
True anomaly
139.03099°
Mean anomaly
139.0017°
Eccentric anomaly
139.01635°
Mean motion
4.12077 °/min
Orbital period
87.36 mins
BSTAR
0.00022205
Loading maneuver chart data...
Computing Atmospheric mass density...
Loading historical data...
Loading historical data...
Loading historical data...
Loading historical data...
Loading historical data...
Loading historical data...
Loading historical data...

Documentation

Showing up to 5 results
|